When you browse on this site, cookies collect data to enhance your experience and personalize the content and advertising you see.
Visit our Privacy Policy to learn more. By continuing to use the site, you agree to this use of cookies and data.
  • In Hungary
  • List of Countries
  • For 7 days
  • Water Temperature
  • Satellite Maps
  • Weather Map
  • News
  • Weather Widgets
  • user-avatar
    Login

    Hourly Weather Colle di Val d'Elsa

    Today, 19 January, Saturday

    Time Temperature Precipitation Wind Pressure Humidity
    00:00 +5°C° 0 mm 1 mps 737 mmHg 91%
    01:00 +4°C° 0 mm 1 mps 737 mmHg 91%
    02:00 +4°C° 0 mm 1 mps 737 mmHg 90%
    03:00 +4°C° 0 mm 1 mps 737 mmHg 90%
    04:00 +3°C° 0 mm 1 mps 737 mmHg 89%
    05:00 +3°C° 0 mm 1 mps 737 mmHg 89%
    06:00 +3°C° 0 mm 1 mps 737 mmHg 89%
    07:00 +3°C° 0 mm 1 mps 737 mmHg 90%
    08:00 +4°C° 0 mm 1 mps 737 mmHg 87%
    09:00 +5°C° 0 mm 1 mps 737 mmHg 83%
    10:00 +7°C° 0 mm 1 mps 737 mmHg 80%
    11:00 +8°C° 0 mm 1 mps 737 mmHg 75%
    12:00 +9°C° 0 mm 1 mps 737 mmHg 70%
    13:00 +9°C° 0 mm 2 mps 737 mmHg 65%
    14:00 +9°C° 0.1 mm 2 mps 737 mmHg 68%
    15:00 +9°C° 0.1 mm 1 mps 737 mmHg 70%
    16:00 +9°C° 0.1 mm 1 mps 737 mmHg 72%
    17:00 +8°C° 0 mm 1 mps 736 mmHg 75%
    18:00 +7°C° 0 mm 1 mps 736 mmHg 79%
    19:00 +6°C° 0 mm 1 mps 736 mmHg 82%
    20:00 +5°C° 0 mm 1 mps 736 mmHg 84%
    21:00 +5°C° 0 mm 1 mps 736 mmHg 85%
    22:00 +5°C° 0 mm 1 mps 736 mmHg 87%
    23:00 +5°C° 0 mm 1 mps 736 mmHg 87%

    Tomorrow, 20 January, Sunday

    Time Temperature Precipitation Wind Pressure Humidity
    00:00 +5°C° 0 mm 1 mps 736 mmHg 88%
    01:00 +5°C° 0 mm 1 mps 736 mmHg 88%
    02:00 +5°C° 0.3 mm 1 mps 736 mmHg 89%
    03:00 +5°C° 0.3 mm 1 mps 736 mmHg 90%
    04:00 +5°C° 0.3 mm 1 mps 736 mmHg 90%
    05:00 +5°C° 0.5 mm 1 mps 736 mmHg 91%
    06:00 +4°C° 0.5 mm 1 mps 736 mmHg 91%
    07:00 +4°C° 0.5 mm 1 mps 736 mmHg 92%
    08:00 +5°C° 0.3 mm 1 mps 736 mmHg 90%
    09:00 +5°C° 0.3 mm 1 mps 737 mmHg 88%
    10:00 +6°C° 0.3 mm 1 mps 737 mmHg 86%
    11:00 +7°C° 0.1 mm 1 mps 737 mmHg 82%
    12:00 +8°C° 0.1 mm 1 mps 737 mmHg 78%
    13:00 +9°C° 0.1 mm 1 mps 737 mmHg 74%
    14:00 +9°C° 0.1 mm 1 mps 737 mmHg 74%
    15:00 +9°C° 0.1 mm 1 mps 737 mmHg 75%
    16:00 +9°C° 0.1 mm 1 mps 737 mmHg 76%
    17:00 +8°C° 0.1 mm 1 mps 737 mmHg 79%
    18:00 +7°C° 0.1 mm 1 mps 737 mmHg 82%
    19:00 +6°C° 0.1 mm 1 mps 737 mmHg 85%
    20:00 +6°C° 0.1 mm 1 mps 737 mmHg 86%
    21:00 +5°C° 0.1 mm 1 mps 737 mmHg 87%
    22:00 +5°C° 0.1 mm 1 mps 738 mmHg 87%
    23:00 +5°C° 0.1 mm 1 mps 738 mmHg 88%

    Day after tomorrow, 21 January, Monday

    Time Temperature Precipitation Wind Pressure Humidity
    00:00 +5°C° 0.1 mm 1 mps 738 mmHg 88%
    01:00 +4°C° 0.1 mm 1 mps 738 mmHg 88%
    02:00 +4°C° 0 mm 1 mps 738 mmHg 89%
    03:00 +4°C° 0 mm 1 mps 738 mmHg 90%
    04:00 +4°C° 0 mm 1 mps 737 mmHg 91%
    05:00 +3°C° 0 mm 1 mps 737 mmHg 91%
    06:00 +3°C° 0 mm 1 mps 738 mmHg 91%
    07:00 +3°C° 0 mm 1 mps 738 mmHg 92%
    08:00 +3°C° 0 mm 2 mps 738 mmHg 87%
    09:00 +4°C° 0 mm 2 mps 738 mmHg 83%
    10:00 +4°C° 0 mm 3 mps 739 mmHg 79%
    11:00 +5°C° 0 mm 3 mps 739 mmHg 75%
    12:00 +7°C° 0 mm 3 mps 738 mmHg 70%
    13:00 +7°C° 0 mm 4 mps 738 mmHg 66%
    14:00 +7°C° 0 mm 4 mps 738 mmHg 67%
    15:00 +6°C° 0 mm 4 mps 738 mmHg 68%
    16:00 +6°C° 0 mm 4 mps 738 mmHg 69%
    17:00 +4°C° 0 mm 3 mps 738 mmHg 74%
    18:00 +4°C° 0 mm 2 mps 738 mmHg 78%
    19:00 +3°C° 0 mm 2 mps 737 mmHg 83%
    20:00 +2°C° 0 mm 2 mps 737 mmHg 83%
    21:00 +2°C° 0 mm 2 mps 737 mmHg 84%
    22:00 +2°C° 0 mm 2 mps 737 mmHg 85%
    23:00 +1°C° 0 mm 2 mps 737 mmHg 84%

    22 January, Tuesday

    Time Temperature Precipitation Wind Pressure Humidity
    00:00 +2°C° 0 mm 1 mps 737 mmHg 84%
    01:00 +2°C° 0 mm 1 mps 737 mmHg 83%
    02:00 +2°C° 0 mm 1 mps 736 mmHg 82%
    03:00 +1°C° 0 mm 1 mps 736 mmHg 82%
    04:00 +1°C° 0 mm 1 mps 735 mmHg 81%
    05:00 +1°C° 0 mm 1 mps 735 mmHg 81%
    06:00 +1°C° 0 mm 1 mps 735 mmHg 80%
    07:00 +1°C° 0 mm 1 mps 735 mmHg 80%
    08:00 +2°C° 0 mm 1 mps 734 mmHg 75%
    09:00 +3°C° 0 mm 1 mps 734 mmHg 70%
    10:00 +4°C° 0 mm 1 mps 734 mmHg 65%
    11:00 +5°C° 0 mm 1 mps 734 mmHg 60%
    12:00 +7°C° 0 mm 1 mps 733 mmHg 56%
    13:00 +7°C° 0 mm 2 mps 733 mmHg 52%
    14:00 +8°C° 0 mm 1 mps 732 mmHg 54%
    15:00 +8°C° 0 mm 1 mps 731 mmHg 55%
    16:00 +7°C° 0 mm 1 mps 731 mmHg 57%
    17:00 +6°C° 0 mm 1 mps 730 mmHg 61%
    18:00 +4°C° 0 mm 1 mps 730 mmHg 66%
    19:00 +2°C° 0 mm 1 mps 729 mmHg 71%
    20:00 +2°C° 0 mm 1 mps 729 mmHg 73%
    21:00 +1°C° 0 mm 1 mps 729 mmHg 75%
    22:00 +1°C° 0 mm 1 mps 729 mmHg 78%
    23:00 +1°C° 0 mm 1 mps 728 mmHg 79%

    23 January, Wednesday

    Time Temperature Precipitation Wind Pressure Humidity
    00:00 0°C° 0 mm 1 mps 727 mmHg 80%
    01:00 0°C° 0 mm 1 mps 727 mmHg 81%
    02:00 0°C° 0 mm 1 mps 726 mmHg 80%
    03:00 0°C° 0 mm 1 mps 726 mmHg 79%
    04:00 0°C° 0 mm 1 mps 725 mmHg 78%
    05:00 0°C° 0 mm 1 mps 725 mmHg 77%
    06:00 0°C° 0 mm 1 mps 725 mmHg 76%
    07:00 0°C° 0 mm 1 mps 725 mmHg 75%
    08:00 +1°C° 0 mm 1 mps 725 mmHg 70%
    09:00 +2°C° 0 mm 2 mps 726 mmHg 66%
    10:00 +3°C° 0 mm 2 mps 726 mmHg 61%
    11:00 +3°C° 0 mm 3 mps 726 mmHg 60%
    12:00 +4°C° 0 mm 3 mps 725 mmHg 59%
    13:00 +5°C° 0 mm 4 mps 725 mmHg 58%
    14:00 +5°C° 0 mm 4 mps 725 mmHg 59%
    15:00 +5°C° 0 mm 5 mps 725 mmHg 60%
    16:00 +3°C° 0 mm 5 mps 724 mmHg 61%
    17:00 +2°C° 0 mm 5 mps 724 mmHg 65%
    18:00 +1°C° 0 mm 5 mps 724 mmHg 69%
    19:00 0°C° 0 mm 4 mps 724 mmHg 73%
    20:00 0°C° 0.1 mm 4 mps 725 mmHg 73%
    21:00 0°C° 0.1 mm 4 mps 725 mmHg 74%
    22:00 0°C° 0.1 mm 4 mps 725 mmHg 74%
    23:00 0°C° 0 mm 4 mps 725 mmHg 76%

    24 January, Thursday

    Time Temperature Precipitation Wind Pressure Humidity
    00:00 +1°C° 0 mm 3 mps 726 mmHg 78%
    01:00 +1°C° 0 mm 3 mps 726 mmHg 80%
    02:00 +1°C° 0 mm 3 mps 726 mmHg 80%
    03:00 +1°C° 0 mm 3 mps 726 mmHg 81%
    04:00 +1°C° 0 mm 3 mps 726 mmHg 82%
    05:00 +1°C° 0 mm 3 mps 726 mmHg 82%
    06:00 +1°C° 0 mm 3 mps 726 mmHg 82%
    07:00 0°C° 0 mm 4 mps 727 mmHg 82%
    08:00 +1°C° 0 mm 4 mps 727 mmHg 77%
    09:00 +2°C° 0 mm 5 mps 727 mmHg 72%
    10:00 +3°C° 0 mm 6 mps 728 mmHg 67%
    11:00 +4°C° 0 mm 6 mps 728 mmHg 65%
    12:00 +5°C° 0 mm 6 mps 728 mmHg 63%
    13:00 +7°C° 0 mm 6 mps 728 mmHg 60%
    14:00 +5°C° 0 mm 6 mps 728 mmHg 62%
    15:00 +5°C° 0 mm 5 mps 728 mmHg 64%
    16:00 +5°C° 0 mm 5 mps 728 mmHg 66%
    17:00 +3°C° 0 mm 4 mps 728 mmHg 71%
    18:00 +2°C° 0 mm 3 mps 728 mmHg 77%
    19:00 +2°C° 0 mm 2 mps 728 mmHg 83%
    20:00 +1°C° 0 mm 2 mps 728 mmHg 83%
    21:00 +1°C° 0 mm 2 mps 728 mmHg 84%
    22:00 +1°C° 0 mm 2 mps 729 mmHg 85%
    23:00 +1°C° 0 mm 2 mps 729 mmHg 85%
    Show more